This is the latest recevied weather packets stored in our database for station/object KMWT. If no packets are shown the sender has not sent any weather packets the latest 1 day(s).
| Time | Temp. | Humidity | Pressure | Rain* | Wind** | Luminosity | Snow |
|---|---|---|---|---|---|---|---|
| 1778059415 | 13.89° C | 93% | 1008.8 hPa | - | - | - | - |
| 1778058816 | 13.89° C | 100% | 1009.1 hPa | - | - | - | - |
| 1778057618 | 13.89° C | 100% | 1008.8 hPa | - | - | - | - |
| 1778057021 | 13.89° C | 100% | 1008.8 hPa | - | - | - | - |
| 1778056416 | 13.89° C | 100% | 1009.1 hPa | - | - | - | - |
| 1778055815 | 13.89° C | 100% | 1009.5 hPa | - | - | - | - |
| 1778054614 | 13.89° C | 100% | 1010.2 hPa | - | - | - | - |
| 1778054013 | 13.89° C | 93% | 1007.8 hPa | - | - | - | - |
| 1778052815 | 15.56° C | 87% | 1009.5 hPa | - | - | - | - |
| 1778051017 | 16.67° C | 82% | 1007.1 hPa | - | - | - | - |
| 1778050412 | 17.78° C | 93% | 1007.1 hPa | - | - | - | - |
| 1778048615 | 17.78° C | 93% | 1007.1 hPa | - | - | - | - |
| 1778048014 | 17.78° C | 93% | 1007.1 hPa | - | - | - | - |
| 1778047419 | 17.78° C | 93% | 1007.1 hPa | - | - | - | - |
| 1778046816 | 18.89° C | 88% | 1007.1 hPa | - | - | - | - |
| 1778046220 | 18.89° C | 88% | 1007.1 hPa | - | - | - | - |
| 1778045613 | 20.56° C | 88% | 1006.4 hPa | - | - | - | - |
| 1778045015 | 20.56° C | 88% | 1006.4 hPa | - | - | - | - |
| 1778044414 | 20.56° C | 88% | 1006.4 hPa | - | - | - | - |
| 1778043817 | 20.56° C | 88% | 1006.4 hPa | - | - | - | - |
| 1778043214 | 20° C | 100% | 1006.1 hPa | - | - | - | - |
| 1778042616 | 20° C | 100% | 1006.1 hPa | - | - | - | - |
| 1778041416 | 20° C | 100% | 1006.1 hPa | - | - | - | - |
| 1778039613 | 20.56° C | 94% | 1005.1 hPa | - | - | - | - |
| 1778038419 | 20.56° C | 94% | 1005.1 hPa | - | - | - | - |
* Rain since midnight (hover to see other rain measurements)
** Current wind speed in m/s (hover to see current wind gust speed)